Location: Deuil
(48.9767°N, 2.3272°E)
Time: 10:33:31
(UTC+00:00)

Cosmos 2228 - Pass Details

Date: 06 June 2022
Orbit: 586 x 617 km, 82.5° (Epoch: 01 July)

Event Time Altitude Azimuth Distance (km) Brightness Sun altitude
Rises 00:52:02 0° 351° (N) 2,876 7.7 -17.0°
Reaches altitude 10° 00:54:17 10° 352° (N) 1,962 6.7 -16.9°
Maximum altitude 00:58:37 79° 79° (E) 618 3.0 -16.7°
Enters shadow 01:00:55 27° 164° (SSE) 1,158 4.0 -16.6°
